Regional Weather Roundup
Issued by NWS

Home | Current Version | Previous Version | Graphics & Text | Print | Product List | Glossary On
Versions: 1 2 3 4 5 6 7 8 9 10 11 12 13 14 15 16 17 18 19 20 21 22 23 24 25 26 27 28 29 30 31 32 33 34 35 36 37 38 39 40 41 42 43 44 45 46 47 48 49 50
000
ASUS43 KMKX 281420
RWRWI

WISCONSIN REGIONAL WEATHER ROUNDUP
NATIONAL WEATHER SERVICE MILWAUKEE/SULLIVAN WI
800 AM CST WED JAN 28 2015

NOTE: "FAIR" INDICATES FEW OR NO CLOUDS BELOW 12,000 FEET WITH NO
SIGNIFICANT WEATHER AND/OR OBSTRUCTIONS TO VISIBILITY.

WIZ001-002-006>008-014>016-023>028-281500-
NORTHWEST WISCONSIN

CITY           SKY/WX    TMP DP  RH WIND       PRES   REMARKS
SUPERIOR ARPT  CLOUDY    26  22  86 SE3       30.03F
ASHLAND        MOCLDY    23  20  88 S3        30.05F
HAYWARD        CLOUDY    23  20  88 SE6       30.03F FOG     WCI  16
SIREN          CLOUDY    25  22  88 SE9       30.01S FOG     WCI  16
CUMBERLAND     CLOUDY    23  21  93 SE15      30.02F FOG     WCI  10
RICE LAKE      CLOUDY    24  21  89 SE13      30.06F FOG     WCI  12
CHETEK         CLOUDY    24  21  90 SE12G17   30.06F FOG     WCI  13
LADYSMITH      CLOUDY    25  23  93 SE10      30.09S FOG     WCI  15
EAU CLAIRE     CLOUDY    25  20  81 SE9       30.08F HAZE    WCI  15
MENOMONIE      CLOUDY    26  23  89 SE13      30.07F FOG     WCI  15
NEW RICHMOND   CLOUDY    26  23  89 SE12      30.02F WCI  15
OSCEOLA        CLOUDY    27  25  92 SE10G16   30.04S WCI  17
$$

WIZ003>005-009-010-017-018-281500-
NORTH CENTRAL WISCONSIN

CITY           SKY/WX    TMP DP  RH WIND       PRES   REMARKS
MANITOWISH WTR CLOUDY    22  22 100 S10       30.06R FOG     WCI  11
ARBOR VITAE    CLOUDY    23  22  93 S8G16     30.08R FOG     WCI  14
WOODRUFF       CLOUDY    23  22  93 S8G16     30.08R FOG     WCI  14
RHINELANDER    CLOUDY    22  20  92 S9        30.10S FOG     WCI  12
EAGLE RIVER    CLOUDY    22  20  90 S8        30.09R FOG     WCI  13
LAND O LAKES   CLOUDY    23  22  96 S8        30.09R FOG     WCI  14
PHILLIPS       CLOUDY    22  21  96 SE8       30.06F FOG     WCI  12
TOMAHAWK       CLOUDY    22  21  93 CALM      30.11S FOG
MEDFORD        FOG       23  21  93 SE8       30.08F VSB 1   WCI  14
MERRILL        CLOUDY    24  22  93 S9        30.12S FOG     WCI  14
$$

WIZ029-030-035-036-043>047-281500-
CENTRAL WISCONSIN

CITY           SKY/WX    TMP DP  RH WIND       PRES   REMARKS
WAUSAU         CLOUDY    24  21  88 S15       30.13S FOG     WCI  11
MOSINEE        CLOUDY    25  23  93 SE10      30.14F FOG     WCI  15
MARSHFIELD     CLOUDY    25  22  88 S14       30.10F FOG     WCI  13
STEVENS POINT  CLOUDY    23  19  87 S8        30.16F WCI  14
WAUPACA        MOCLDY    26  20  79 SE6       30.21R WCI  19
WAUTOMA        MOCLDY    23  19  86 SE7       30.20S WCI  15
WISC RAPIDS    CLOUDY    25  20  81 S9        30.16S WCI  15
CAMP DOUGLAS   CLOUDY    25  25 100 SE15      30.14S WCI  12
$$

WIZ011>013-019>022-031-037>040-048>050-281500-
NORTHEAST WISCONSIN

CITY           SKY/WX    TMP DP  RH WIND       PRES   REMARKS
ANTIGO         CLOUDY    20  18  92 S12       30.14R WCI   8
SHAWANO        CLOUDY    26  19  75 CALM      30.21S
OCONTO         MOCLDY    18  17  96 MISG      30.22F
STURGEON BAY   PTCLDY    23  18  80 S6        30.24S WCI  16
GREEN BAY      MOCLDY    20  17  88 S5        30.23F WCI  13
MANITOWOC      MOCLDY    19  18  93 SW5       30.24F WCI  13
APPLETON       MOCLDY    23  18  80 S9        30.22S WCI  13
CLINTONVILLE   CLOUDY    27  19  74 S7        30.21R WCI  19
OSHKOSH        MOCLDY    22  17  81 S7        30.22S WCI  13
$$

WIZ032>034-041-042-053>061-281500-
SOUTHWEST WISCONSIN

CITY           SKY/WX    TMP DP  RH WIND       PRES   REMARKS
LA CROSSE      CLOUDY    28  23  81 SE12      30.12F HAZE    WCI  18
SPARTA         CLOUDY    26  23  87 SE8       30.14S FOG     WCI  18
VIROQUA        CLOUDY    25  25 100 S15       30.10S WCI  12
BOSCOBEL       CLOUDY    28  23  81 S8        30.17F HAZE    WCI  20
PRAIRIE DU CHI CLOUDY    27  23  86 SE9       30.15F FOG     WCI  17
PLATTEVILLE    CLOUDY    27  25  93 SE13      30.17R WCI  16
$$

WIZ056-057-062-063-064-067-068-281500-
SOUTH CENTRAL WISCONSIN

CITY           SKY/WX    TMP DP  RH WIND       PRES   REMARKS
REEDSBURG      CLOUDY    24  21  89 SE8       30.16F WCI  15
BARABOO/DELLS  CLOUDY    24  21  89 S12G21    30.16F WCI  13
LONE ROCK      CLOUDY    26  22  84 SE13      30.18F FOG     WCI  15
MINERAL POINT  CLOUDY    28  27  93 S14       30.15S FOG     WCI  17
MADISON        CLOUDY    22  18  85 S14       30.20F WCI   9
MIDDLETON      CLOUDY    27  22  82 S12       30.19F WCI  16
WATERTOWN      PTCLDY    20  18  91 SE3       30.22F
MONROE         CLOUDY    27  23  86 S14       30.19S WCI  15
JANESVILLE     CLEAR     23  18  80 SE6       30.22  WCI  16
$$

WIZ051-052-058>065-066-070>072-281500-
SOUTHEAST WISCONSIN

CITY           SKY/WX    TMP DP  RH WIND       PRES   REMARKS
MILWAUKEE      MOCLDY    24  18  77 S6        30.25F WCI  17
WAUKESHA       PTCLDY    19  16  86 S5        30.25S WCI  13
MILWAUKEE/TIMM CLEAR     25  18  74 E3        30.26S
RACINE         MOCLDY    24  19  81 SW3       30.27F
BURLINGTON     CLEAR     13  12  94 CALM      30.25S FOG
KENOSHA        PTCLDY    23  19  85 S7        30.26S WCI  15
FOND DU LAC    MOCLDY    23  17  78 S8        30.22F WCI  14
SHEBOYGAN      MOCLDY    20  15  81 CALM      30.24S
WEST BEND      PTCLDY    21  18  86 SE3       30.23F
JUNEAU         PTCLDY    20  17  86 SE9       30.23S WCI  10
$$

LSZ147-162-281500-
LAKE SUPERIOR

STATION/POSITION TIME  TEMP    WIND        PRES    WAVE
                       AIR SEA DIR/SP/G            HT/PER
                 (UTC) (F)     (DEG/KT/KT) (MB)    (FT/S)
DEVILS ISLAND    1400   27     170/  7/ 10 1018.6F
PORT WING        1300   25     110/  1/  2 1017.9F
SAXON HARBOR     1300   25        CALM     1018.6S
$$

LMZ867-665-643>646-281500-
LAKE MICHIGAN

STATION/POSITION TIME  TEMP    WIND        PRES    WAVE
                       AIR SEA DIR/SP/G            HT/PER
                 (UTC) (F)     (DEG/KT/KT) (MB)    (FT/S)
NORTHPORT PIER   1406   23     200/  2/  6 1023.7F
SISTER BAY       1243   20        CALM       N/A
KEWAUNEE LAKESHO 1300   20     250/  1/  4 1023.3F
SHEBOYGAN LAKESH 1400   29     200/ 10/ 12 1025.3F
PORT WASHINGTON  1300   23        CALM     1025.1F
MILWAUKEE LAKESH 1400   26     210/  9/ 10   N/A
KENOSHA   LAKESH 1400   26     210/  8/ 11 1024.7S
$$

TC  - TEMPERATURE IN CELSIUS
VSB - VISIBILITY IN STATUTE MILES
WCI - WIND CHILL INDEX
HX  - HEAT INDEX




USA.gov is the U.S. government's official web portal to all federal, state and local government web resources and services.